AWW94SN LEBB-EGFF

Flight info

Callsign AWW94SN
Flight time 1h 18m
Altitude 38000
Route MAPAX N867 NENEM DCT RATUF DCT TERKU DCT NOZHU DCT TOJAQ DCT DAWLY
Aircraft A20N/M-SDE2E3FGHIRWXY/LB1

Departure

Time 2026-05-07 18:09
Airport Bilbao Airport (LEBB)

Arrival

Time 2026-05-07 19:27
Airport Cardiff International Airport (EGFF)
Time Latitude Longitude Altitude Speed Heading
2026-05-07 17:35 43.30408 -2.90576 126 ft 0 kts 26°
2026-05-07 17:36 43.30407 -2.90576 126 ft 0 kts 26°
2026-05-07 17:59 43.30393 -2.90586 122 ft 4 kts 30°
2026-05-07 17:59 43.30370 -2.90607 123 ft 4 kts 41°
2026-05-07 18:00 43.30354 -2.90634 127 ft 4 kts 78°
2026-05-07 18:00 43.30354 -2.90655 123 ft 1 kts 117°
2026-05-07 18:00 43.30356 -2.90658 123 ft 0 kts 117°
2026-05-07 18:02 43.30355 -2.90656 123 ft 1 kts 117°
2026-05-07 18:02 43.30346 -2.90633 130 ft 4 kts 117°
2026-05-07 18:02 43.30332 -2.90605 124 ft 6 kts 131°
2026-05-07 18:03 43.30291 -2.90565 122 ft 3 kts 146°
2026-05-07 18:03 43.30279 -2.90553 126 ft 7 kts 145°
2026-05-07 18:03 43.30220 -2.90544 124 ft 11 kts 187°
2026-05-07 18:03 43.30153 -2.90575 125 ft 11 kts 195°
2026-05-07 18:04 43.30097 -2.90521 125 ft 11 kts 116°
2026-05-07 18:04 43.30060 -2.90416 125 ft 13 kts 116°
2026-05-07 18:04 43.30016 -2.90294 125 ft 15 kts 116°
2026-05-07 18:04 43.29965 -2.90155 127 ft 17 kts 116°
2026-05-07 18:05 43.29909 -2.90001 125 ft 19 kts 116°
2026-05-07 18:05 43.29855 -2.89851 124 ft 17 kts 117°
2026-05-07 18:05 43.29804 -2.89711 126 ft 14 kts 116°
2026-05-07 18:05 43.29773 -2.89626 124 ft 11 kts 116°
2026-05-07 18:06 43.29751 -2.89566 126 ft 0 kts 116°
2026-05-07 18:06 43.29745 -2.89550 124 ft 3 kts 116°
2026-05-07 18:06 43.29728 -2.89511 124 ft 6 kts 127°
2026-05-07 18:06 43.29688 -2.89490 126 ft 3 kts 187°
2026-05-07 18:07 43.29678 -2.89495 127 ft 0 kts 202°
2026-05-07 18:07 43.29664 -2.89517 126 ft 8 kts 238°
2026-05-07 18:08 43.29640 -2.89608 125 ft 12 kts 251°
2026-05-07 18:08 43.29628 -2.89738 126 ft 15 kts 286°
2026-05-07 18:08 43.29744 -2.90063 126 ft 72 kts 296°
2026-05-07 18:08 43.30066 -2.90942 124 ft 131 kts 297°
2026-05-07 18:09 43.30540 -2.92243 285 ft 160 kts 297°
2026-05-07 18:09 43.31016 -2.93585 901 ft 157 kts 293°
2026-05-07 18:09 43.31478 -2.94921 1580 ft 155 kts 296°
2026-05-07 18:09 43.32022 -2.96339 1851 ft 190 kts 297°
2026-05-07 18:10 43.32785 -2.98011 2319 ft 223 kts 309°
2026-05-07 18:10 43.33936 -2.99599 2718 ft 250 kts 320°
2026-05-07 18:10 43.35381 -3.01129 2859 ft 267 kts 322°
2026-05-07 18:10 43.36830 -3.02766 3120 ft 272 kts 318°
2026-05-07 18:11 43.38216 -3.04564 3742 ft 276 kts 314°
2026-05-07 18:11 43.39543 -3.06459 4860 ft 274 kts 312°
2026-05-07 18:11 43.41067 -3.08039 5812 ft 279 kts 336°
2026-05-07 18:11 43.42961 -3.08685 6762 ft 282 kts 351°
2026-05-07 18:12 43.44918 -3.09076 7648 ft 288 kts 352°
2026-05-07 18:12 43.46900 -3.09444 8611 ft 289 kts 352°
2026-05-07 18:12 43.48895 -3.09820 9594 ft 291 kts 352°
2026-05-07 18:12 43.50932 -3.10217 10316 ft 302 kts 351°
2026-05-07 18:13 43.53092 -3.10649 10662 ft 325 kts 351°
2026-05-07 18:13 43.55399 -3.11116 11027 ft 344 kts 351°
2026-05-07 18:13 43.57760 -3.11596 11759 ft 350 kts 351°
2026-05-07 18:13 43.60225 -3.12094 12478 ft 360 kts 350°
2026-05-07 18:14 43.62689 -3.12597 13228 ft 364 kts 350°
2026-05-07 18:14 43.65194 -3.13108 14082 ft 366 kts 349°
2026-05-07 18:14 43.67725 -3.13623 14795 ft 370 kts 349°
2026-05-07 18:14 43.70280 -3.14145 15538 ft 372 kts 349°
2026-05-07 18:15 43.72849 -3.14671 16288 ft 375 kts 349°
2026-05-07 18:15 43.75447 -3.15202 16943 ft 380 kts 349°
2026-05-07 18:15 43.78071 -3.15740 17665 ft 382 kts 349°
2026-05-07 18:15 43.80712 -3.16281 18382 ft 385 kts 349°
2026-05-07 18:16 43.83377 -3.16826 18945 ft 389 kts 349°
2026-05-07 18:16 43.86071 -3.17379 19533 ft 393 kts 349°
2026-05-07 18:16 43.88782 -3.17936 20147 ft 396 kts 349°
2026-05-07 18:16 43.91519 -3.18499 20722 ft 399 kts 349°
2026-05-07 18:17 43.94282 -3.19068 21292 ft 403 kts 349°
2026-05-07 18:17 43.97070 -3.19643 21861 ft 407 kts 349°
2026-05-07 18:17 43.99883 -3.20223 22433 ft 410 kts 348°
2026-05-07 18:17 44.02718 -3.20808 23001 ft 414 kts 348°
2026-05-07 18:18 44.05576 -3.21399 23549 ft 417 kts 348°
2026-05-07 18:18 44.08459 -3.21995 24016 ft 420 kts 348°
2026-05-07 18:18 44.11361 -3.22596 24479 ft 423 kts 348°
2026-05-07 18:18 44.14287 -3.23203 24923 ft 426 kts 348°
2026-05-07 18:19 44.17230 -3.23814 25374 ft 429 kts 348°
2026-05-07 18:19 44.20192 -3.24430 25864 ft 431 kts 348°
2026-05-07 18:19 44.23167 -3.25049 26279 ft 434 kts 348°
2026-05-07 18:19 44.26167 -3.25674 26687 ft 437 kts 348°
2026-05-07 18:20 44.29188 -3.26304 27094 ft 440 kts 348°
2026-05-07 18:20 44.32226 -3.26938 27488 ft 443 kts 348°
2026-05-07 18:20 44.35287 -3.27577 27867 ft 446 kts 348°
2026-05-07 18:20 44.38368 -3.28222 28248 ft 449 kts 348°
2026-05-07 18:21 44.41464 -3.28870 28610 ft 452 kts 348°
2026-05-07 18:21 44.44583 -3.29523 28965 ft 454 kts 348°
2026-05-07 18:21 44.47719 -3.30181 29300 ft 457 kts 348°
2026-05-07 18:21 44.50870 -3.30843 29631 ft 460 kts 348°
2026-05-07 18:22 44.54043 -3.31509 29971 ft 462 kts 348°
2026-05-07 18:22 44.56151 -3.31952 30173 ft 463 kts 348°
2026-05-07 18:22 44.60410 -3.32849 30706 ft 463 kts 348°
2026-05-07 18:22 44.63603 -3.33521 31031 ft 464 kts 348°
2026-05-07 18:23 44.66796 -3.34195 31428 ft 464 kts 348°
2026-05-07 18:23 44.69936 -3.34857 31873 ft 461 kts 348°
2026-05-07 18:23 44.73103 -3.35527 32318 ft 459 kts 348°
2026-05-07 18:23 44.76258 -3.36194 32749 ft 457 kts 348°
2026-05-07 18:24 44.79397 -3.36859 33173 ft 455 kts 348°
2026-05-07 18:24 44.82526 -3.37523 33591 ft 454 kts 348°
2026-05-07 18:24 44.85684 -3.38194 33984 ft 452 kts 348°
2026-05-07 18:24 44.88750 -3.38846 34258 ft 451 kts 348°
2026-05-07 18:25 44.91898 -3.39518 34503 ft 452 kts 348°
2026-05-07 18:25 44.94963 -3.40172 34751 ft 452 kts 348°
2026-05-07 18:25 44.98077 -3.40837 34984 ft 453 kts 348°
2026-05-07 18:25 45.01191 -3.41503 35206 ft 453 kts 348°
2026-05-07 18:26 45.04305 -3.42169 35444 ft 453 kts 348°
2026-05-07 18:26 45.07418 -3.42835 35681 ft 453 kts 348°
2026-05-07 18:26 45.10535 -3.43503 35894 ft 453 kts 348°
2026-05-07 18:26 45.13647 -3.44171 36109 ft 453 kts 348°
2026-05-07 18:27 45.16713 -3.44830 36331 ft 453 kts 348°
2026-05-07 18:27 45.19828 -3.45500 36527 ft 453 kts 348°
2026-05-07 18:27 45.22948 -3.46172 36735 ft 453 kts 348°
2026-05-07 18:27 45.26064 -3.46843 36933 ft 453 kts 348°
2026-05-07 18:28 45.29183 -3.47516 37128 ft 453 kts 348°
2026-05-07 18:28 45.32289 -3.48186 37425 ft 450 kts 348°
2026-05-07 18:28 45.35386 -3.48856 37623 ft 450 kts 349°
2026-05-07 18:28 45.38486 -3.49528 37783 ft 451 kts 349°
2026-05-07 18:29 45.41587 -3.50200 37927 ft 451 kts 349°
2026-05-07 18:29 45.47788 -3.51545 37944 ft 450 kts 349°
2026-05-07 18:30 45.53977 -3.52891 37952 ft 450 kts 349°
2026-05-07 18:30 45.60171 -3.54241 37949 ft 450 kts 349°
2026-05-07 18:31 45.66366 -3.55594 37953 ft 450 kts 349°
2026-05-07 18:31 45.72555 -3.56949 37960 ft 450 kts 349°
2026-05-07 18:32 45.78738 -3.58306 37954 ft 450 kts 349°
2026-05-07 18:32 45.84921 -3.59666 37951 ft 449 kts 349°
2026-05-07 18:33 45.91099 -3.61028 37953 ft 449 kts 349°
2026-05-07 18:33 45.97277 -3.62393 37959 ft 449 kts 349°
2026-05-07 18:34 46.03453 -3.63760 37955 ft 449 kts 349°
2026-05-07 18:34 46.09628 -3.65130 37959 ft 449 kts 349°
2026-05-07 18:35 46.15806 -3.66504 37960 ft 449 kts 349°
2026-05-07 18:35 46.22016 -3.67602 37964 ft 451 kts 355°
2026-05-07 18:36 46.28309 -3.67490 37962 ft 453 kts 359°
2026-05-07 18:36 46.34609 -3.67308 37968 ft 453 kts 359°
2026-05-07 18:37 46.40871 -3.67118 37969 ft 453 kts 359°
2026-05-07 18:37 46.47177 -3.66914 37971 ft 453 kts 359°
2026-05-07 18:38 46.53487 -3.66707 37974 ft 454 kts 359°
2026-05-07 18:38 46.59801 -3.66500 37979 ft 454 kts 359°
2026-05-07 18:39 46.66118 -3.66292 37981 ft 454 kts 359°
2026-05-07 18:39 46.72424 -3.66084 37981 ft 454 kts 359°
2026-05-07 18:40 46.78739 -3.65876 37972 ft 454 kts 359°
2026-05-07 18:40 46.85063 -3.65667 37972 ft 454 kts 359°
2026-05-07 18:41 46.91381 -3.65457 37985 ft 454 kts 359°
2026-05-07 18:41 46.97711 -3.65246 37973 ft 455 kts 359°
2026-05-07 18:42 47.04044 -3.65035 37977 ft 455 kts 359°
2026-05-07 18:42 47.10379 -3.64823 37980 ft 455 kts 359°
2026-05-07 18:43 47.16675 -3.64612 37979 ft 456 kts 359°
2026-05-07 18:43 47.23016 -3.64399 37981 ft 456 kts 359°
2026-05-07 18:44 47.29365 -3.64185 37982 ft 456 kts 359°
2026-05-07 18:44 47.35758 -3.63969 37980 ft 457 kts 359°
2026-05-07 18:45 47.42114 -3.63754 37980 ft 457 kts 359°
2026-05-07 18:45 47.48426 -3.63540 37983 ft 457 kts 359°
2026-05-07 18:46 47.54783 -3.63324 37995 ft 457 kts 359°
2026-05-07 18:46 47.61147 -3.63107 37992 ft 457 kts 359°
2026-05-07 18:47 47.67487 -3.62890 37994 ft 457 kts 359°
2026-05-07 18:47 47.73848 -3.62672 37995 ft 457 kts 359°
2026-05-07 18:48 47.80217 -3.62454 38000 ft 458 kts 359°
2026-05-07 18:48 47.86587 -3.62234 37985 ft 458 kts 359°
2026-05-07 18:49 47.92955 -3.62015 37983 ft 458 kts 359°
2026-05-07 18:49 47.98250 -3.61831 37979 ft 458 kts 359°
2026-05-07 18:50 48.04613 -3.61799 37981 ft 456 kts 353°
2026-05-07 18:50 48.11980 -3.62457 37980 ft 456 kts 354°
2026-05-07 18:51 48.17290 -3.62902 37992 ft 456 kts 354°
2026-05-07 18:51 48.23635 -3.63446 37980 ft 456 kts 354°
2026-05-07 18:52 48.29934 -3.63992 37982 ft 457 kts 354°
2026-05-07 18:52 48.36274 -3.64543 37987 ft 457 kts 354°
2026-05-07 18:53 48.42624 -3.65097 37993 ft 457 kts 354°
2026-05-07 18:53 48.48977 -3.65652 37993 ft 457 kts 354°
2026-05-07 18:54 48.55328 -3.66209 37996 ft 457 kts 354°
2026-05-07 18:54 48.61681 -3.66766 37989 ft 457 kts 354°
2026-05-07 18:55 48.68025 -3.67325 37993 ft 457 kts 354°
2026-05-07 18:55 48.74390 -3.67887 37991 ft 458 kts 354°
2026-05-07 18:56 48.80749 -3.68450 37989 ft 457 kts 354°
2026-05-07 18:56 48.87100 -3.69014 37988 ft 458 kts 354°
2026-05-07 18:57 48.93460 -3.69579 37986 ft 458 kts 354°
2026-05-07 18:57 48.99815 -3.70146 37985 ft 458 kts 354°
2026-05-07 18:58 49.06174 -3.70715 37981 ft 458 kts 354°
2026-05-07 18:58 49.12533 -3.71285 37980 ft 458 kts 354°
2026-05-07 18:59 49.18895 -3.71857 37980 ft 458 kts 354°
2026-05-07 18:59 49.25255 -3.72430 37993 ft 458 kts 354°
2026-05-07 19:00 49.31618 -3.73005 37979 ft 458 kts 354°
2026-05-07 19:00 49.37980 -3.73581 37972 ft 458 kts 354°
2026-05-07 19:01 49.44347 -3.74159 37982 ft 458 kts 354°
2026-05-07 19:01 49.50716 -3.74739 37984 ft 459 kts 354°
2026-05-07 19:02 49.57085 -3.75320 37989 ft 458 kts 354°
2026-05-07 19:02 49.63453 -3.75903 37969 ft 458 kts 354°
2026-05-07 19:02 49.66627 -3.76194 37741 ft 456 kts 354°
2026-05-07 19:03 49.69808 -3.76363 37083 ft 460 kts 359°
2026-05-07 19:03 49.73017 -3.76027 36198 ft 466 kts
2026-05-07 19:03 49.76268 -3.75612 35216 ft 473 kts
2026-05-07 19:03 49.79576 -3.75204 34239 ft 480 kts
2026-05-07 19:04 49.82914 -3.74795 33268 ft 482 kts
2026-05-07 19:04 49.86217 -3.74387 32352 ft 483 kts
2026-05-07 19:04 49.89571 -3.73970 31437 ft 484 kts
2026-05-07 19:04 49.92910 -3.73554 30814 ft 479 kts
2026-05-07 19:05 49.96219 -3.73141 30187 ft 475 kts
2026-05-07 19:05 49.99498 -3.72731 29510 ft 470 kts
2026-05-07 19:05 50.02732 -3.72326 28900 ft 464 kts
2026-05-07 19:05 50.05927 -3.71925 28289 ft 458 kts
2026-05-07 19:06 50.09083 -3.71529 27692 ft 453 kts
2026-05-07 19:06 50.15295 -3.70750 26444 ft 445 kts
2026-05-07 19:06 50.18364 -3.70364 25885 ft 440 kts
2026-05-07 19:07 50.21398 -3.69982 25314 ft 436 kts
2026-05-07 19:07 50.24410 -3.69602 24717 ft 432 kts
2026-05-07 19:07 50.27402 -3.69224 24117 ft 430 kts
2026-05-07 19:07 50.30371 -3.68849 23520 ft 427 kts
2026-05-07 19:08 50.33316 -3.68475 22916 ft 422 kts
2026-05-07 19:08 50.36228 -3.68105 22358 ft 417 kts
2026-05-07 19:08 50.39107 -3.67740 21749 ft 413 kts
2026-05-07 19:08 50.41959 -3.67378 21191 ft 409 kts
2026-05-07 19:09 50.44778 -3.66988 20628 ft 405 kts
2026-05-07 19:09 50.47472 -3.65779 20078 ft 403 kts 24°
2026-05-07 19:09 50.49809 -3.63427 19537 ft 399 kts 42°
2026-05-07 19:09 50.51629 -3.60174 18995 ft 395 kts 54°
2026-05-07 19:10 50.53160 -3.56619 18456 ft 392 kts 58°
2026-05-07 19:10 50.54635 -3.53031 17853 ft 390 kts 58°
2026-05-07 19:10 50.56180 -3.49566 17317 ft 385 kts 49°
2026-05-07 19:10 50.58221 -3.46891 16778 ft 382 kts 30°
2026-05-07 19:11 50.60670 -3.45401 16234 ft 376 kts 10°
2026-05-07 19:11 50.63250 -3.44870 15698 ft 373 kts
2026-05-07 19:11 50.65793 -3.44613 15172 ft 370 kts
2026-05-07 19:11 50.68351 -3.44355 14641 ft 368 kts
2026-05-07 19:12 50.70895 -3.44032 14115 ft 366 kts
2026-05-07 19:12 50.73422 -3.43653 13566 ft 364 kts
2026-05-07 19:12 50.75928 -3.43242 13043 ft 360 kts
2026-05-07 19:12 50.78407 -3.42820 12536 ft 357 kts
2026-05-07 19:13 50.80871 -3.42395 11974 ft 355 kts
2026-05-07 19:13 50.83312 -3.41973 11507 ft 351 kts
2026-05-07 19:13 50.85742 -3.41553 10894 ft 351 kts
2026-05-07 19:13 50.88155 -3.41137 10476 ft 346 kts
2026-05-07 19:14 50.90497 -3.40731 10331 ft 332 kts
2026-05-07 19:14 50.92743 -3.40343 10204 ft 318 kts
2026-05-07 19:14 50.94899 -3.39969 10061 ft 306 kts
2026-05-07 19:14 50.96997 -3.39606 9726 ft 301 kts
2026-05-07 19:15 50.99066 -3.39248 9348 ft 297 kts
2026-05-07 19:15 51.01108 -3.38896 8981 ft 294 kts
2026-05-07 19:15 51.03130 -3.38546 8624 ft 291 kts
2026-05-07 19:15 51.05137 -3.38199 8196 ft 291 kts
2026-05-07 19:16 51.07138 -3.37852 7811 ft 289 kts
2026-05-07 19:16 51.09128 -3.37506 7434 ft 287 kts
2026-05-07 19:16 51.11106 -3.37162 7066 ft 285 kts
2026-05-07 19:16 51.13075 -3.36818 6691 ft 284 kts
2026-05-07 19:17 51.15030 -3.36478 6327 ft 281 kts
2026-05-07 19:17 51.16979 -3.36137 5924 ft 280 kts
2026-05-07 19:17 51.18917 -3.35815 5523 ft 279 kts
2026-05-07 19:17 51.20843 -3.35599 5175 ft 276 kts
2026-05-07 19:18 51.22752 -3.35432 4810 ft 275 kts
2026-05-07 19:18 51.24657 -3.35266 4421 ft 274 kts
2026-05-07 19:18 51.26551 -3.35091 4088 ft 271 kts
2026-05-07 19:18 51.28430 -3.34908 3715 ft 270 kts
2026-05-07 19:19 51.30305 -3.34718 3347 ft 269 kts
2026-05-07 19:19 51.32164 -3.34529 3241 ft 273 kts
2026-05-07 19:19 51.34047 -3.34336 3122 ft 267 kts
2026-05-07 19:19 51.35862 -3.34149 3012 ft 255 kts
2026-05-07 19:20 51.37561 -3.34006 2992 ft 240 kts 357°
2026-05-07 19:20 51.39083 -3.34769 2998 ft 227 kts 323°
2026-05-07 19:20 51.40093 -3.36681 3005 ft 226 kts 290°
2026-05-07 19:20 51.40574 -3.39061 3001 ft 224 kts 280°
2026-05-07 19:21 51.40905 -3.41488 2997 ft 223 kts 279°
2026-05-07 19:21 51.41235 -3.43899 2997 ft 219 kts 280°
2026-05-07 19:21 51.41585 -3.46179 2995 ft 203 kts 281°
2026-05-07 19:21 51.41944 -3.48332 3005 ft 202 kts 282°
2026-05-07 19:22 51.42316 -3.50492 2996 ft 200 kts 282°
2026-05-07 19:22 51.42695 -3.52641 3002 ft 201 kts 282°
2026-05-07 19:22 51.43078 -3.54797 2998 ft 201 kts 283°
2026-05-07 19:22 51.43468 -3.56943 2995 ft 201 kts 287°
2026-05-07 19:23 51.44292 -3.58748 3002 ft 207 kts 324°
2026-05-07 19:23 51.45647 -3.59463 3003 ft 209 kts
2026-05-07 19:23 51.46967 -3.58680 3009 ft 206 kts 48°
2026-05-07 19:23 51.47550 -3.56691 3005 ft 198 kts 94°
2026-05-07 19:24 51.47082 -3.54723 3007 ft 190 kts 134°
2026-05-07 19:24 51.46168 -3.53184 2859 ft 192 kts 137°
2026-05-07 19:24 51.45258 -3.51570 2528 ft 195 kts 130°
2026-05-07 19:24 51.44534 -3.49791 2247 ft 187 kts 122°
2026-05-07 19:25 51.43943 -3.47966 1978 ft 181 kts 118°
2026-05-07 19:25 51.43403 -3.46214 1732 ft 167 kts 120°
2026-05-07 19:25 51.42905 -3.44625 1498 ft 153 kts 119°
2026-05-07 19:25 51.42443 -3.43164 1311 ft 147 kts 120°
2026-05-07 19:26 51.41979 -3.41690 1092 ft 147 kts 118°
2026-05-07 19:26 51.41511 -3.40207 885 ft 150 kts 117°
2026-05-07 19:26 51.41044 -3.38708 670 ft 150 kts 116°
2026-05-07 19:26 51.40568 -3.37190 473 ft 152 kts 116°
2026-05-07 19:27 51.40092 -3.35691 267 ft 150 kts 116°
2026-05-07 19:27 51.39646 -3.34272 219 ft 124 kts 116°
2026-05-07 19:27 51.39368 -3.33389 225 ft 35 kts 118°
2026-05-07 19:27 51.39303 -3.33193 221 ft 6 kts 117°
2026-05-07 19:28 51.39305 -3.33104 223 ft 11 kts 47°
2026-05-07 19:28 51.39376 -3.33052 221 ft 13 kts 25°
2026-05-07 19:28 51.39453 -3.33088 220 ft 13 kts 304°
2026-05-07 19:28 51.39496 -3.33221 221 ft 14 kts 296°
2026-05-07 19:29 51.39545 -3.33382 219 ft 18 kts 296°
2026-05-07 19:29 51.39604 -3.33570 220 ft 20 kts 297°
2026-05-07 19:29 51.39666 -3.33760 221 ft 12 kts 296°
2026-05-07 19:29 51.39699 -3.33844 221 ft 7 kts 329°
2026-05-07 19:30 51.39741 -3.33822 221 ft 3 kts 25°
2026-05-07 19:30 51.39747 -3.33818 221 ft 0 kts 25°